Tracking 17145 objects as of 23-May-2015
HD Live streaming from Space Station

DEMETER

Track DEMETER now!
10-day predictions
DEMETER is classified as:


NORAD ID: 28368
Int'l Code: 2004-025C
Perigee: 655.6 km
Apogee: 657.8 km
Inclination: 97.7 °
Period: 97.7 minutes
Semi major axis: 7027 km
RCS: 0.9257 m2 (medium)
Launch date: June 29, 2004
Source: France (FR)

Study of ionosperic perturbations in relation with seismic activity; global study of the Earth electromagnetic environment.
Your satellite tracking list
Your tracking list is empty





NASA's NSSDC Master Catalog

Two Line Element Set (TLE):
1 28368U 04025C   15141.74517390  .00000616  00000-0  10174-3 0  9995
2 28368 097.7334 165.9863 0001530 116.4685 243.6675 14.73612670584041

Source of the keplerian elements: AFSPC

N2YO: 321